Location: Observatoire de l'Aigle
(47.0607°N, 71.3152°W)
Time: 15:19:43
(UTC-05:00)

Amateur Radio Satellites - All Passes

Search period start: 03 March 2015 14:49
Search period end: 04 March 2015 14:49
Location: Observatoire de l'Aigle, 47.0607°N, 71.3152°W

Satellite Date Start Highest point End Downlink Frequencies (MHz)
Time Altitude Azimuth
HORYU 2 03 Mar 15:12:26 15:16:17 28° 265° (W) 15:20:07 437.375
CUTE-I 03 Mar 15:12:51 15:14:25 11° 53° (NE) 15:16:15 437.470
JAS-2 03 Mar 15:15:56 15:21:30 83° 75° (ENE) 15:27:52 435.910
MOZHAYETS 4 03 Mar 15:25:19 15:27:55 15° 87° (E) 15:30:42
ISS 03 Mar 15:38:52 15:40:27 13° 225° (SW) 15:41:57 145.825
KKS-1 03 Mar 15:44:04 15:47:47 26° 295° (WNW) 15:51:24 437.445
STARS 03 Mar 15:48:15 15:52:12 33° 292° (WNW) 15:56:06 437.465
BEESAT 3 03 Mar 16:02:12 16:05:11 20° 114° (ESE) 16:08:16 437.485
M-CUBED/EXP-1 PRIME 03 Mar 16:12:07 16:16:10 44° 104° (ESE) 16:20:32 437.505
YUBILEINY 03 Mar 16:13:17 16:22:03 81° 281° (W) 16:30:55 435.215
AUBIESAT-1 03 Mar 16:13:22 16:17:23 41° 104° (ESE) 16:21:41 437.475
AO-7 03 Mar 16:21:10 16:28:17 29° 268° (W) 16:35:11 29.400- 29.500
BEESAT 2 03 Mar 16:27:59 16:31:37 30° 117° (ESE) 16:35:19 435.950
AIST 2 03 Mar 16:32:00 16:34:14 14° 111° (ESE) 16:36:39 435.215
Cubesat XI-IV 03 Mar 16:39:40 16:44:53 54° 70° (ENE) 16:50:09 437.490
CUTE-I 03 Mar 16:48:17 16:53:34 63° 71° (ENE) 16:58:55 437.470
HO-68 03 Mar 16:53:29 16:54:10 10° 40° (NE) 16:55:11 435.675
VERMONT LUNAR 03 Mar 16:53:42 16:55:39 14° 158° (SSE) 16:57:39 437.305
MOZHAYETS 4 03 Mar 17:01:05 17:05:42 67° 286° (WNW) 17:10:19
JAS-2 03 Mar 17:04:13 17:07:47 16° 278° (W) 17:11:17 435.910
PHONESAT 2.4 03 Mar 17:05:19 17:06:11 11° 153° (SSE) 17:07:10 2401.200-2431.200
CUBESAT XI-V 03 Mar 17:26:11 17:29:44 21° 90° (E) 17:33:22 437.345
BEESAT 3 03 Mar 17:38:56 17:42:58 52° 312° (NW) 17:47:03 437.485
AIST 1 03 Mar 17:39:14 17:43:40 76° 80° (E) 17:48:04
O/OREOS (USA 219) 03 Mar 17:43:07 17:47:27 38° 57° (ENE) 17:51:45 437.305
PRISM 03 Mar 17:46:30 17:50:14 30° 96° (E) 17:54:00 437.425
M-CUBED/EXP-1 PRIME 03 Mar 17:47:34 17:50:56 24° 299° (WNW) 17:54:27 437.505
AUBIESAT-1 03 Mar 17:48:38 17:52:07 25° 299° (WNW) 17:55:43 437.475
STRAND 1 03 Mar 17:54:21 17:58:30 25° 92° (E) 18:02:43 437.568
BEESAT 2 03 Mar 18:05:52 18:09:44 36° 316° (NW) 18:13:38 435.950
AIST 2 03 Mar 18:08:04 18:12:20 75° 308° (NW) 18:16:41 435.215
CANX-2 03 Mar 18:12:04 18:13:46 12° 60° (ENE) 18:15:38 2200.000
YUBILEINY 03 Mar 18:14:17 18:20:39 21° 306° (NW) 18:26:42 435.215
Cubesat XI-IV 03 Mar 18:21:01 18:25:21 24° 269° (W) 18:29:36 437.490
CUTE 1.7 + AOD 2 03 Mar 18:29:27 18:32:05 17° 63° (ENE) 18:34:51 437.475
VERMONT LUNAR 03 Mar 18:29:57 18:32:56 26° 174° (S) 18:35:56 437.305
CUTE-I 03 Mar 18:30:09 18:34:10 20° 270° (W) 18:38:03 437.470
HO-68 03 Mar 18:33:36 18:40:07 41° 61° (ENE) 18:46:44 435.675
BRITE-PL 03 Mar 18:36:20 18:41:25 38° 69° (ENE) 18:46:21 437.365/2234.400
GOMX 1 03 Mar 18:36:53 18:41:13 27° 66° (ENE) 18:45:28 467.674
PHONESAT 2.4 03 Mar 18:40:55 18:43:56 24° 169° (S) 18:46:58 2401.200-2431.200
PCSat 03 Mar 18:44:49 18:46:41 12° 104° (ESE) 18:48:51 145.827
CUBESAT XI-V 03 Mar 19:02:55 19:07:30 49° 289° (WNW) 19:12:00 437.345
DOVE 4 03 Mar 19:06:42 19:11:12 34° 68° (ENE) 19:15:33 437.250
CINEMA 3 03 Mar 19:08:27 19:11:46 20° 64° (ENE) 19:15:05 145.822/145.860
AAUSAT CUBESAT 2 03 Mar 19:08:38 19:11:59 25° 67° (ENE) 19:15:25 437.432
Oscar 11 03 Mar 19:09:46 19:12:06 15° 61° (ENE) 19:14:34 145.826/435.025
COMPASS 1 03 Mar 19:11:44 19:15:21 30° 68° (ENE) 19:19:02 437.405
AIST 1 03 Mar 19:19:07 19:20:45 12° 277° (W) 19:22:10
BEESAT 3 03 Mar 19:20:05 19:22:02 13° 334° (NNW) 19:23:54 437.485
PRISM 03 Mar 19:22:01 19:25:43 29° 293° (WNW) 19:29:21 437.425
O/OREOS (USA 219) 03 Mar 19:22:50 19:26:45 27° 255° (WSW) 19:30:33 437.305
CUBEBUG 2 03 Mar 19:23:01 19:25:33 16° 62° (ENE) 19:28:12 437.445
STRAND 1 03 Mar 19:33:02 19:38:00 49° 291° (WNW) 19:42:55 437.568
DX 1 03 Mar 19:35:45 19:38:11 15° 60° (ENE) 19:40:46 434.975-435.025
SEEDS 03 Mar 19:40:03 19:44:13 71° 75° (ENE) 19:48:24 437.485
CANX-2 03 Mar 19:44:57 19:49:10 81° 257° (WSW) 19:53:25 2200.000
BEESAT 2 03 Mar 19:48:17 19:49:08 10° 339° (NNW) 19:49:53 435.950
AIST 2 03 Mar 19:48:55 19:51:43 16° 330° (NNW) 19:54:27 435.215
HUMSAT D 03 Mar 19:54:15 19:55:34 11° 60° (ENE) 19:57:03 437.325/437.525
VELOX 1 03 Mar 19:54:58 19:55:30 10° 56° (ENE) 19:56:15 145.980
FUNcube-1 03 Mar 19:55:39 19:58:52 21° 65° (ENE) 20:02:08 145.935
ZACube-1 03 Mar 19:57:12 20:00:31 22° 65° (ENE) 20:03:51 437.345
UKube-1 03 Mar 20:02:41 20:06:12 25° 65° (ENE) 20:09:47 .
CUTE 1.7 + AOD 2 03 Mar 20:03:31 20:07:39 56° 260° (W) 20:11:49 437.475
VERMONT LUNAR 03 Mar 20:07:29 20:10:20 23° 191° (S) 20:13:11 437.305
DELFI C3 03 Mar 20:09:32 20:13:19 41° 71° (ENE) 20:17:10 145.870
GOMX 1 03 Mar 20:14:01 20:19:10 47° 262° (W) 20:24:04 467.674
BRITE-PL 03 Mar 20:14:48 20:19:57 36° 265° (W) 20:24:51 437.365/2234.400
UWE-3 03 Mar 20:17:52 20:22:00 41° 71° (ENE) 20:26:04 435.000/436.395/437.385
PHONESAT 2.4 03 Mar 20:18:44 20:21:53 28° 186° (S) 20:25:02 2401.200-2431.200
HO-68 03 Mar 20:20:56 20:27:48 48° 261° (W) 20:34:41 435.675
PCSat 03 Mar 20:23:54 20:29:18 77° 121° (ESE) 20:34:46 145.827
GONETS M04 03 Mar 20:27:17 20:34:44 35° 85° (E) 20:42:22
Oscar 11 03 Mar 20:43:32 20:47:49 69° 259° (W) 20:52:07 145.826/435.025
AAUSAT CUBESAT 2 03 Mar 20:43:45 20:47:32 33° 264° (W) 20:51:19 437.432
CINEMA 3 03 Mar 20:44:02 20:48:41 55° 260° (W) 20:53:10 145.822/145.860
DOVE 4 03 Mar 20:44:19 20:48:58 34° 265° (W) 20:53:22 437.250
COMPASS 1 03 Mar 20:47:29 20:51:05 27° 266° (W) 20:54:39 437.405
CUBEBUG 2 03 Mar 20:57:23 21:01:52 67° 259° (WSW) 21:06:13 437.445
DX 1 03 Mar 21:09:34 21:13:57 71° 257° (WSW) 21:18:22 434.975-435.025
50 SAT 03 Mar 21:12:08 21:15:57 46° 72° (ENE) 21:19:47 437.505
RS-15 03 Mar 21:12:52 21:20:12 23° 102° (ESE) 21:28:09 29.354- 29.394
AISAT 03 Mar 21:17:56 21:22:22 61° 73° (ENE) 21:26:50 437.250
CUBEBUG 1 03 Mar 21:18:17 21:22:03 28° 66° (ENE) 21:25:54 437.445
SEEDS 03 Mar 21:18:52 21:20:37 12° 274° (W) 21:22:11 437.485
HUMSAT D 03 Mar 21:26:35 21:30:47 86° 256° (WSW) 21:34:58 437.325/437.525
VELOX 1 03 Mar 21:26:52 21:31:20 72° 74° (ENE) 21:35:50 145.980
FUNcube-1 03 Mar 21:30:51 21:35:01 43° 262° (W) 21:39:06 145.935
ZACube-1 03 Mar 21:32:34 21:36:42 41° 262° (W) 21:40:46 437.345
UKube-1 03 Mar 21:38:07 21:42:12 38° 262° (W) 21:46:18 .
DELFI C3 03 Mar 21:45:47 21:48:46 19° 269° (W) 21:51:38 145.870
ESTCUBE 1 03 Mar 21:46:45 21:51:12 57° 72° (ENE) 21:55:42 437.505/2401.250
VERMONT LUNAR 03 Mar 21:47:08 21:47:32 10° 207° (SSW) 21:47:51 437.305
SPROUT 03 Mar 21:47:20 21:49:54 16° 62° (ENE) 21:52:37 437.525
TISAT 1 03 Mar 21:47:27 21:49:45 15° 61° (ENE) 21:52:12 437.305
UNISAT 6 03 Mar 21:54:32 21:58:23 31° 96° (E) 22:02:17 437.425
UWE-3 03 Mar 21:55:18 21:58:45 22° 268° (W) 22:02:04 435.000/436.395/437.385
PHONESAT 2.4 03 Mar 21:57:30 21:59:43 15° 202° (SSW) 22:01:53 2401.200-2431.200
QB50P1 03 Mar 22:00:46 22:03:58 21° 92° (E) 22:07:14 145.935-145.965
QB50P2 03 Mar 22:04:53 22:08:17 23° 93° (E) 22:11:43 145.880/145.840
BUGSAT 1 03 Mar 22:05:28 22:08:13 17° 90° (E) 22:11:02 437.445
PCSat 03 Mar 22:08:54 22:13:21 25° 322° (NW) 22:17:45 145.827
DANDE 03 Mar 22:17:43 22:21:04 16° 91° (E) 22:24:14 436.750
DUCHIFAT 1 03 Mar 22:18:42 22:22:27 31° 95° (E) 22:26:13 145.980
TIGRISAT 03 Mar 22:18:50 22:23:03 54° 101° (E) 22:27:17 435.000
GONETS M04 03 Mar 22:22:40 22:31:13 59° 286° (WNW) 22:39:48
ANTELSAT 03 Mar 22:33:02 22:37:21 79° 102° (ESE) 22:41:42 437.575/2403.000
CUSAT 1 03 Mar 22:39:12 22:43:57 26° 96° (E) 22:47:51 437.405
POPSAT HIP 1 03 Mar 22:39:59 22:44:09 52° 100° (E) 22:48:16 437.405
POLYITAN 1 03 Mar 22:40:04 22:44:14 53° 100° (E) 22:48:22 437.675
BEESAT 3 03 Mar 22:41:31 22:42:07 10° 21° (NNE) 22:42:49 437.485
50 SAT 03 Mar 22:48:39 22:51:15 16° 270° (W) 22:53:44 437.505
CUBEBUG 1 03 Mar 22:54:16 22:58:21 34° 264° (W) 23:02:25 437.445
AISAT 03 Mar 22:56:36 22:59:27 16° 271° (W) 23:02:10 437.250
NANOSAT C BR1 03 Mar 23:02:40 23:06:55 89° 289° (WNW) 23:11:08 145.865
VELOX 1 03 Mar 23:06:12 23:08:31 13° 273° (W) 23:10:38 145.980
BEESAT 2 03 Mar 23:07:29 23:09:23 13° 26° (NNE) 23:11:24 435.950
RS-15 03 Mar 23:20:08 23:31:01 82° 124° (ESE) 23:42:09 29.354- 29.394
TISAT 1 03 Mar 23:20:49 23:25:06 70° 258° (WSW) 23:29:23 437.305
SPROUT 03 Mar 23:21:16 23:25:34 64° 259° (W) 23:29:55 437.525
ESTCUBE 1 03 Mar 23:25:27 23:28:31 17° 271° (W) 23:31:26 437.505/2401.250
UNISAT 6 03 Mar 23:31:26 23:35:08 28° 293° (WNW) 23:38:48 437.425
SWISSCUBE 03 Mar 23:32:19 23:36:31 32° 66° (ENE) 23:40:48 437.505
QB50P1 03 Mar 23:36:04 23:40:04 40° 290° (WNW) 23:44:00 145.935-145.965
BUGSAT 1 03 Mar 23:39:59 23:44:02 47° 289° (WNW) 23:47:59 437.445
QB50P2 03 Mar 23:40:25 23:44:20 36° 291° (WNW) 23:48:11 145.880/145.840
BEESAT 03 Mar 23:40:36 23:44:53 35° 67° (ENE) 23:49:16 436.000
SO-50 03 Mar 23:48:06 23:49:15 11° 108° (ESE) 23:50:41 436.795
DUCHIFAT 1 03 Mar 23:54:38 23:58:16 28° 293° (WNW) 00:01:48 145.980
TIGRISAT 03 Mar 23:56:34 23:59:28 18° 297° (WNW) 00:02:16 435.000
DANDE 03 Mar 23:57:48 00:04:19 80° 281° (W) 00:09:08 436.750
ITUPSAT 1 04 Mar 00:08:17 00:12:59 61° 72° (ENE) 00:17:46 437.325
ANTELSAT 04 Mar 00:11:36 00:13:39 13° 300° (WNW) 00:15:33 437.575/2403.000
POPSAT HIP 1 04 Mar 00:16:47 00:19:43 18° 297° (WNW) 00:22:29 437.405
POLYITAN 1 04 Mar 00:16:57 00:19:50 18° 297° (WNW) 00:22:35 437.675
BEESAT 3 04 Mar 00:17:34 00:21:25 36° 43° (NE) 00:25:15 437.485
CUSAT 1 04 Mar 00:21:19 00:26:48 40° 285° (WNW) 00:30:56 437.405
YUBILEINY 04 Mar 00:24:37 00:29:13 15° 48° (NE) 00:34:17 435.215
GONETS M04 04 Mar 00:25:55 00:30:32 14° 312° (NW) 00:34:43
NANOSAT C BR1 04 Mar 00:40:47 00:42:11 11° 301° (WNW) 00:43:23 145.865
BEESAT 2 04 Mar 00:44:26 00:48:33 52° 48° (NE) 00:52:35 435.950
AIST 2 04 Mar 00:49:04 00:52:50 29° 40° (NE) 00:56:36 435.215
Gurwin Techsat 1B 04 Mar 00:57:48 00:59:54 13° 84° (E) 01:02:19 435.225
KKS-1 04 Mar 01:08:07 01:12:27 50° 71° (ENE) 01:16:48 437.445
SWISSCUBE 04 Mar 01:10:01 01:14:22 34° 264° (W) 01:18:44 437.505
STARS 04 Mar 01:11:46 01:15:49 37° 68° (ENE) 01:19:54 437.465
Oscar 19 04 Mar 01:14:46 01:19:52 63° 101° (E) 01:24:57 437.125/150
ITAMSAT 1 04 Mar 01:16:33 01:20:41 24° 92° (E) 01:24:55 435.822/435.867
BEESAT 04 Mar 01:18:34 01:22:48 30° 265° (W) 01:27:01 436.000
SO-50 04 Mar 01:24:24 01:29:02 79° 126° (SE) 01:33:51 436.795
RS-15 04 Mar 01:34:22 01:44:39 42° 332° (NNW) 01:55:09 29.354- 29.394
PCSat 04 Mar 01:44:36 01:44:59 10° 14° (NNE) 01:45:28 145.827
DANDE 04 Mar 01:45:46 01:48:04 12° 296° (WNW) 01:49:55 436.750
ITUPSAT 1 04 Mar 01:48:05 01:51:22 18° 271° (W) 01:54:31 437.325
BEESAT 3 04 Mar 01:55:48 01:59:28 30° 243° (WSW) 02:03:02 437.485
YUBILEINY 04 Mar 02:19:42 02:28:28 61° 75° (ENE) 02:37:13 435.215
JAS-2 04 Mar 02:23:03 02:26:08 13° 80° (E) 02:29:48 435.910
BEESAT 2 04 Mar 02:23:20 02:26:25 20° 246° (WSW) 02:29:23 435.950
AO-7 04 Mar 02:26:06 02:31:13 18° 85° (E) 02:36:45 29.400- 29.500
AIST 2 04 Mar 02:27:32 02:31:37 43° 240° (WSW) 02:35:36 435.215
MOZHAYETS 4 04 Mar 02:30:14 02:33:35 21° 63° (ENE) 02:37:03
Gurwin Techsat 1B 04 Mar 02:35:27 02:40:48 86° 101° (E) 02:46:09 435.225
KKS-1 04 Mar 02:46:10 02:49:25 19° 269° (W) 02:52:35 437.445
STARS 04 Mar 02:48:40 02:52:24 25° 266° (W) 02:56:04 437.465
Oscar 19 04 Mar 02:55:01 02:58:50 21° 299° (WNW) 03:02:31 437.125/150
ITAMSAT 1 04 Mar 02:55:27 03:00:32 51° 291° (WNW) 03:05:34 435.822/435.867
HORYU 2 04 Mar 03:00:02 03:04:17 43° 98° (E) 03:08:33 437.375
M-CUBED/EXP-1 PRIME 04 Mar 03:04:49 03:08:09 85° 250° (WSW) 03:11:41 437.505
AUBIESAT-1 04 Mar 03:05:33 03:08:53 86° 72° (ENE) 03:12:26 437.475
SO-50 04 Mar 03:06:22 03:10:10 23° 327° (NNW) 03:14:01 436.795
PCSat 04 Mar 03:25:57 03:30:27 26° 39° (NE) 03:34:59 145.827
RS-15 04 Mar 03:51:05 04:00:42 32° 5° (N) 04:10:39 29.354- 29.394
JAS-2 04 Mar 04:05:16 04:12:38 64° 100° (E) 04:20:26 435.910
MOZHAYETS 4 04 Mar 04:06:05 04:10:32 50° 261° (W) 04:15:01
Gurwin Techsat 1B 04 Mar 04:16:49 04:20:10 17° 302° (WNW) 04:23:20 435.225
AO-7 04 Mar 04:17:09 04:25:31 81° 108° (ESE) 04:33:48 29.400- 29.500
YUBILEINY 04 Mar 04:17:11 04:24:54 34° 276° (W) 04:32:25 435.215
CUBESAT XI-V 04 Mar 04:32:27 04:36:29 29° 66° (ENE) 04:40:36 437.345
HORYU 2 04 Mar 04:37:12 04:40:45 23° 296° (WNW) 04:44:12 437.375
PRISM 04 Mar 04:39:52 04:43:36 34° 68° (ENE) 04:47:25 437.425
SO-50 04 Mar 04:51:34 04:52:31 10° 351° (N) 04:53:25 436.795
Cubesat XI-IV 04 Mar 04:55:02 04:58:20 17° 87° (E) 05:01:49 437.490
CUTE-I 04 Mar 05:03:15 05:06:59 20° 89° (E) 05:10:54 437.470
PCSat 04 Mar 05:09:00 05:14:25 71° 240° (WSW) 05:19:49 145.827
STRAND 1 04 Mar 05:12:56 05:17:52 48° 69° (ENE) 05:22:50 437.568
JAS-2 04 Mar 05:50:53 05:57:21 34° 298° (WNW) 06:04:04 435.910
RS-15 04 Mar 06:05:20 06:16:18 53° 37° (NE) 06:27:47 29.354- 29.394
CUBESAT XI-V 04 Mar 06:09:32 06:13:52 36° 264° (W) 06:18:13 437.345
AO-7 04 Mar 06:10:44 06:17:37 29° 308° (NW) 06:24:18 29.400- 29.500
AIST 1 04 Mar 06:11:57 06:15:58 38° 92° (E) 06:20:05
PRISM 04 Mar 06:15:43 06:19:11 25° 266° (W) 06:22:38 437.425
GONETS M04 04 Mar 06:32:55 06:39:04 21° 55° (NE) 06:45:33
SO-50 04 Mar 06:33:21 06:35:14 12° 16° (NNE) 06:37:13 436.795
Cubesat XI-IV 04 Mar 06:33:43 06:39:07 75° 287° (WNW) 06:44:28 437.490
CUTE-I 04 Mar 06:42:17 06:47:38 65° 289° (WNW) 06:52:55 437.470
STRAND 1 04 Mar 06:53:04 06:57:21 25° 268° (W) 07:01:32 437.568
PCSat 04 Mar 06:55:27 06:56:59 11° 257° (WSW) 06:58:13 145.827
CANX-2 04 Mar 07:28:42 07:31:00 15° 88° (E) 07:33:29 2200.000
HO-68 04 Mar 07:45:10 07:51:17 30° 93° (E) 07:57:31 435.675
CUTE 1.7 + AOD 2 04 Mar 07:46:26 07:49:34 20° 91° (E) 07:52:48 437.475
AIST 1 04 Mar 07:50:17 07:53:49 23° 291° (WNW) 07:57:19
O/OREOS (USA 219) 04 Mar 07:59:04 08:02:41 24° 104° (ESE) 08:06:24 437.305
ANTELSAT 04 Mar 08:01:17 08:03:11 13° 60° (ENE) 08:05:15 437.575/2403.000
SO-50 04 Mar 08:12:57 08:17:20 31° 39° (NE) 08:21:46 436.795
GOMX 1 04 Mar 08:13:24 08:17:32 39° 96° (E) 08:21:30 467.674
Cubesat XI-IV 04 Mar 08:15:45 08:18:25 14° 305° (NW) 08:20:52 437.490
BRITE-PL 04 Mar 08:16:48 08:21:23 65° 101° (E) 08:25:39 437.365/2234.400
RS-15 04 Mar 08:18:02 08:29:12 62° 242° (WSW) 08:40:48 29.354- 29.394
ISS 04 Mar 08:18:30 08:21:29 36° 145° (SE) 08:24:30 145.825
AAUSAT CUBESAT 2 04 Mar 08:23:46 08:27:27 30° 95° (E) 08:31:11 437.432
CUTE-I 04 Mar 08:24:48 08:26:48 12° 307° (NW) 08:28:33 437.470
NANOSAT C BR1 04 Mar 08:25:12 08:27:02 13° 60° (ENE) 08:29:02 145.865
COMPASS 1 04 Mar 08:27:31 08:31:26 37° 96° (E) 08:35:23 437.405
GONETS M04 04 Mar 08:28:45 08:37:34 83° 80° (E) 08:46:24
Oscar 11 04 Mar 08:28:48 08:31:40 18° 90° (E) 08:34:41 145.826/435.025
CINEMA 3 04 Mar 08:36:29 08:39:58 26° 93° (E) 08:43:29 145.822/145.860
DOVE 4 04 Mar 08:40:20 08:44:33 52° 99° (E) 08:48:36 437.250
CUBEBUG 2 04 Mar 08:46:23 08:49:19 19° 91° (E) 08:52:22 437.445
DX 1 04 Mar 08:56:12 08:58:50 16° 89° (E) 09:01:36 434.975-435.025
UNISAT 6 04 Mar 08:56:34 09:00:40 41° 70° (ENE) 09:04:45 437.425
QB50P1 04 Mar 08:56:36 09:00:04 25° 66° (ENE) 09:03:36 145.935-145.965
SEEDS 04 Mar 08:57:12 09:01:28 88° 271° (W) 09:05:42 437.485
BUGSAT 1 04 Mar 08:58:35 09:01:42 20° 64° (ENE) 09:04:54 437.445
QB50P2 04 Mar 09:00:52 09:04:29 28° 67° (ENE) 09:08:10 145.880/145.840
CANX-2 04 Mar 09:03:12 09:07:25 60° 287° (WNW) 09:11:36 2200.000
HUMSAT D 04 Mar 09:09:47 09:11:23 12° 87° (E) 09:13:11 437.325/437.525
DUCHIFAT 1 04 Mar 09:14:07 09:18:01 35° 69° (ENE) 09:21:57 145.980
FUNcube-1 04 Mar 09:16:29 09:19:59 26° 94° (E) 09:23:33 145.935
VELOX 1 04 Mar 09:17:06 09:18:14 11° 86° (E) 09:19:37 145.980
ZACube-1 04 Mar 09:18:19 09:21:54 28° 94° (E) 09:25:32 437.345
TIGRISAT 04 Mar 09:20:33 09:24:54 71° 74° (ENE) 09:29:12 435.000
DELFI C3 04 Mar 09:21:22 09:25:20 47° 99° (E) 09:29:18 145.870
CUTE 1.7 + AOD 2 04 Mar 09:21:41 09:25:44 43° 289° (WNW) 09:29:46 437.475
UKube-1 04 Mar 09:22:49 09:26:32 27° 95° (E) 09:30:18 .
HO-68 04 Mar 09:32:26 09:39:31 62° 293° (WNW) 09:46:33 435.675
ANTELSAT 04 Mar 09:35:05 09:39:28 81° 257° (WSW) 09:43:49 437.575/2403.000
POPSAT HIP 1 04 Mar 09:35:38 09:39:51 59° 73° (ENE) 09:44:05 437.405
POLYITAN 1 04 Mar 09:35:59 09:40:13 61° 73° (ENE) 09:44:28 437.675
O/OREOS (USA 219) 04 Mar 09:37:32 09:41:54 43° 302° (WNW) 09:46:18 437.305
UWE-3 04 Mar 09:41:00 09:45:07 59° 100° (E) 09:49:15 435.000/436.395/437.385
GOMX 1 04 Mar 09:52:01 09:55:30 22° 296° (WNW) 09:58:46 467.674
SO-50 04 Mar 09:53:20 09:58:10 52° 238° (WSW) 10:02:56 436.795
ISS 04 Mar 09:54:41 09:57:51 51° 343° (NNW) 10:01:02 145.825
BRITE-PL 04 Mar 09:56:34 09:59:24 16° 300° (WNW) 10:02:00 437.365/2234.400
NANOSAT C BR1 04 Mar 09:58:04 10:02:21 81° 256° (WSW) 10:06:40 145.865
AAUSAT CUBESAT 2 04 Mar 09:59:27 10:03:05 28° 292° (WNW) 10:06:39 437.432
COMPASS 1 04 Mar 10:03:36 10:07:00 23° 294° (WNW) 10:10:20 437.405
Oscar 11 04 Mar 10:04:00 10:08:13 51° 288° (WNW) 10:12:25 145.826/435.025
CINEMA 3 04 Mar 10:13:32 10:17:16 31° 292° (WNW) 10:20:55 145.822/145.860
DOVE 4 04 Mar 10:19:05 10:21:59 17° 298° (WNW) 10:24:42 437.250
CUBEBUG 2 04 Mar 10:22:21 10:26:19 42° 289° (WNW) 10:30:15 437.445
50 SAT 04 Mar 10:22:25 10:26:16 50° 99° (E) 10:30:09 437.505
GONETS M04 04 Mar 10:26:53 10:33:30 24° 280° (W) 10:39:49
DX 1 04 Mar 10:31:12 10:35:31 58° 288° (WNW) 10:39:48 434.975-435.025
QB50P1 04 Mar 10:31:50 10:35:49 36° 263° (W) 10:39:47 145.935-145.965
BUGSAT 1 04 Mar 10:32:47 10:36:55 46° 261° (W) 10:41:04 437.445
RS-15 04 Mar 10:33:33 10:39:37 15° 263° (W) 10:44:49 29.354- 29.394
UNISAT 6 04 Mar 10:34:16 10:37:41 21° 268° (W) 10:40:58 437.425
SEEDS 04 Mar 10:35:21 10:36:40 11° 301° (WNW) 10:37:50 437.485
QB50P2 04 Mar 10:36:28 10:40:21 32° 264° (W) 10:44:12 145.880/145.840
DANDE 04 Mar 10:37:32 10:40:15 74° 259° (WSW) 10:42:51 436.750
CUBEBUG 1 04 Mar 10:40:00 10:44:04 35° 96° (E) 10:48:07 437.445
AISAT 04 Mar 10:42:22 10:46:52 82° 104° (ESE) 10:51:18 437.250
HUMSAT D 04 Mar 10:43:37 10:47:43 67° 285° (WNW) 10:51:48 437.325/437.525
DUCHIFAT 1 04 Mar 10:50:24 10:53:58 25° 267° (W) 10:57:28 145.980
VELOX 1 04 Mar 10:51:03 10:55:32 85° 285° (WNW) 10:59:58 145.980
FUNcube-1 04 Mar 10:52:42 10:56:23 31° 292° (WNW) 11:00:03 145.935
ZACube-1 04 Mar 10:54:40 10:58:18 29° 292° (WNW) 11:01:54 437.345
CUSAT 1 04 Mar 10:57:18 10:59:30 23° 265° (W) 11:01:40 437.405
DELFI C3 04 Mar 10:57:22 11:00:15 18° 296° (WNW) 11:03:02 145.870
Oscar 19 04 Mar 10:57:27 11:00:57 19° 60° (ENE) 11:04:37 437.125/150
UKube-1 04 Mar 10:58:50 11:02:45 33° 293° (WNW) 11:06:37 .
TIGRISAT 04 Mar 11:00:10 11:02:14 13° 273° (W) 11:04:04 435.000
TISAT 1 04 Mar 11:03:56 11:06:21 15° 89° (E) 11:08:55 437.305
SPROUT 04 Mar 11:05:57 11:08:53 18° 90° (E) 11:11:55 437.525
ESTCUBE 1 04 Mar 11:13:10 11:17:47 83° 101° (ESE) 11:22:20 437.505/2401.250
POPSAT HIP 1 04 Mar 11:13:37 11:16:11 15° 271° (W) 11:18:37 437.405
POLYITAN 1 04 Mar 11:14:07 11:16:37 15° 271° (W) 11:18:57 437.675
UWE-3 04 Mar 11:18:44 11:21:18 16° 298° (WNW) 11:23:43 435.000/436.395/437.385
HO-68 04 Mar 11:21:56 11:25:59 16° 313° (NW) 11:29:47 435.675
ISS 04 Mar 11:31:40 11:34:40 35° 3° (N) 11:37:42 145.825
AO-7 04 Mar 11:42:40 11:44:43 11° 32° (NNE) 11:47:07 29.400- 29.500
50 SAT 04 Mar 11:58:23 12:00:57 16° 296° (WNW) 12:03:25 437.505
ITUPSAT 1 04 Mar 12:07:48 12:09:48 13° 86° (E) 12:12:02 437.325
CUBEBUG 1 04 Mar 12:16:36 12:20:21 27° 294° (WNW) 12:24:00 437.445
AISAT 04 Mar 12:20:38 12:22:55 14° 301° (WNW) 12:25:00 437.250
Gurwin Techsat 1B 04 Mar 12:20:54 12:25:20 28° 64° (ENE) 12:29:52 435.225
VELOX 1 04 Mar 12:29:48 12:31:28 12° 302° (WNW) 12:32:56 145.980
Oscar 19 04 Mar 12:34:44 12:39:51 69° 257° (WSW) 12:45:00 437.125/150
ITAMSAT 1 04 Mar 12:37:13 12:42:14 49° 69° (ENE) 12:47:17 435.822/435.867
TISAT 1 04 Mar 12:38:26 12:42:36 57° 288° (WNW) 12:46:43 437.305
SPROUT 04 Mar 12:41:09 12:45:18 48° 289° (WNW) 12:49:25 437.525
ESTCUBE 1 04 Mar 12:51:41 12:54:05 14° 301° (WNW) 12:56:19 437.505/2401.250
SWISSCUBE 04 Mar 13:06:47 13:11:29 49° 99° (E) 13:16:09 437.505
ISS 04 Mar 13:08:10 13:11:25 72° 22° (NNE) 13:14:39 145.825
BEESAT 04 Mar 13:15:02 13:19:46 54° 100° (E) 13:24:29 436.000
AO-7 04 Mar 13:27:55 13:35:14 37° 56° (NE) 13:42:40 29.400- 29.500
YUBILEINY 04 Mar 13:34:14 13:37:26 13° 72° (ENE) 13:41:14 435.215
ITUPSAT 1 04 Mar 13:43:35 13:48:27 84° 283° (WNW) 13:53:16 437.325
Gurwin Techsat 1B 04 Mar 14:00:01 14:05:08 46° 262° (W) 14:10:16 435.225
HORYU 2 04 Mar 14:01:16 14:05:37 58° 72° (ENE) 14:10:00 437.375
ITAMSAT 1 04 Mar 14:17:40 14:22:02 25° 268° (W) 14:26:17 435.822/435.867
JAS-2 04 Mar 14:21:42 14:26:48 35° 62° (ENE) 14:32:32 435.910
KKS-1 04 Mar 14:32:40 14:37:08 68° 102° (ESE) 14:41:32 437.445
STARS 04 Mar 14:34:40 14:38:54 46° 99° (E) 14:43:08 437.465
